Smithfield, NC

9:59 PM EDT on August 23, 2017 (GMT -0400)
Johnston County

Weather History for KJNX - November, 2012

Change the Weather History Date:

Friday, November 30, 2012

  Actual Average Record
Temperature  
Mean Temperature 42 °F -  
Max Temperature 60 °F 59 °F 78 °F (2006)
Min Temperature 24 °F 32 °F 20 °F (1976)
Degree Days  
Heating Degree Days 23    
Moisture  
Dew Point 31 °F    
Average Humidity 77    
Maximum Humidity 100    
Minimum Humidity 34    
Precipitation  
Precipitation 0.00 in - - ()
Sea Level Pressure  
Sea Level Pressure 30.36 in    
Wind  
Wind Speed 1 mph (SSW)    
Max Wind Speed 8 mph    
Max Gust Speed -    
Visibility 10 miles    
Events      
Averages and records for this station are not official NWS values.
T = Trace of Precipitation, MM = Missing Value Source: NWS Daily Summary

Daily Weather History Graph

Daily Weather History Graph

Search for Another Location

Airport or City:

Trip Planner

Search our weather history database for the weather conditions in past years. The results will help you decide how hot, cold, wet, or windy it might be!

Date:

Astronomy

Nov. 30, 2012 Rise Set
Actual Time 7:04 AM EST 5:00 PM EST
Civil Twilight 6:36 AM EST 5:28 PM EST
Nautical Twilight 6:04 AM EST 6:00 PM EST
Astronomical Twilight 5:33 AM EST 6:30 PM EST
Moon 6:53 PM EST (11/30) 8:34 AM EST (11/30)
Length of Visible Light 10h 52m
Length of Day
9h 56m
Waning Gibbous, 96% of the Moon is Illuminated
Nov 30
Waning Gibbous
Dec 6
Last Quarter
Dec 13
New
Dec 20
First Quarter
Dec 28
Full

Hourly Weather History & Observations

Time (EST) Temp. Windchill Dew Point Humidity Pressure Visibility Wind Dir Wind Speed Gust Speed Precip Events Conditions
12:15 AM 28.4 °F - 28.4 °F 100% 30.41 in 10.0 mi Calm Calm - N/A   Clear
12:35 AM 28.4 °F - 28.4 °F 100% 30.40 in 10.0 mi Calm Calm - N/A   Clear
12:55 AM 28.4 °F - 28.4 °F 100% 30.39 in 10.0 mi Calm Calm - N/A   Clear
1:15 AM 28.4 °F - 28.4 °F 100% 30.39 in 10.0 mi Calm Calm - N/A   Clear
1:35 AM 28.4 °F - 28.4 °F 100% 30.40 in 10.0 mi Calm Calm - N/A   Clear
1:55 AM 26.6 °F - 26.6 °F 100% 30.40 in 10.0 mi Calm Calm - N/A   Clear
2:15 AM 26.6 °F - 26.6 °F 100% 30.40 in 10.0 mi Calm Calm - N/A   Clear
2:35 AM 26.6 °F - 26.6 °F 100% 30.40 in 10.0 mi Calm Calm - N/A   Clear
2:55 AM 26.6 °F - 26.6 °F 100% 30.40 in 10.0 mi Calm Calm - N/A   Clear
3:15 AM 26.6 °F - 26.6 °F 100% 30.39 in 10.0 mi Calm Calm - N/A   Clear
3:35 AM 26.6 °F - 26.6 °F 100% 30.39 in 10.0 mi Calm Calm - N/A   Clear
3:55 AM 26.6 °F - 26.6 °F 100% 30.39 in 10.0 mi Calm Calm - N/A   Clear
4:15 AM 26.6 °F - 26.6 °F 100% 30.39 in 10.0 mi Calm Calm - N/A   Clear
4:35 AM 26.6 °F - 26.6 °F 100% 30.39 in 10.0 mi Calm Calm - N/A   Clear
4:55 AM 26.6 °F - 26.6 °F 100% 30.39 in 10.0 mi Calm Calm - N/A   Clear
5:15 AM 26.6 °F - 26.6 °F 100% 30.38 in 10.0 mi Calm Calm - N/A   Clear
5:35 AM 26.6 °F - 26.6 °F 100% 30.39 in 10.0 mi Calm Calm - N/A   Clear
5:55 AM 26.6 °F - 26.6 °F 100% 30.39 in 10.0 mi Calm Calm - N/A   Clear
6:15 AM 26.6 °F - 26.6 °F 100% 30.39 in 10.0 mi Calm Calm - N/A   Clear
6:35 AM 24.8 °F - 24.8 °F 100% 30.39 in 10.0 mi Calm Calm - N/A   Clear
6:55 AM 26.6 °F - 26.6 °F 100% 30.40 in 10.0 mi Calm Calm - N/A   Clear
7:15 AM 26.6 °F - 26.6 °F 100% 30.40 in 10.0 mi Calm Calm - N/A   Clear
7:35 AM 26.6 °F - 26.6 °F 100% 30.40 in 10.0 mi Calm Calm - N/A   Clear
7:55 AM 28.4 °F - 28.4 °F 100% 30.40 in 10.0 mi Calm Calm - N/A   Clear
8:15 AM 30.2 °F - 30.2 °F 100% 30.41 in 10.0 mi Calm Calm - N/A   Clear
8:35 AM 32.0 °F - 32.0 °F 100% 30.41 in 10.0 mi Calm Calm - N/A   Clear
8:55 AM 33.8 °F - 33.8 °F 100% 30.42 in 10.0 mi Calm Calm - N/A   Clear
9:15 AM 37.4 °F - 35.6 °F 93% 30.42 in 10.0 mi Calm Calm - N/A   Clear
9:35 AM 42.8 °F 41.1 °F 35.6 °F 76% 30.42 in 10.0 mi SW 3.5 mph - N/A   Clear
9:55 AM 46.4 °F - 35.6 °F 66% 30.42 in 10.0 mi Calm Calm - N/A   Clear
10:15 AM 48.2 °F - 35.6 °F 62% 30.42 in 10.0 mi WSW 3.5 mph - N/A   Clear
10:35 AM 50.0 °F - 35.6 °F 58% 30.41 in 10.0 mi WSW 4.6 mph - N/A   Clear
10:55 AM 53.6 °F - 35.6 °F 51% 30.41 in 10.0 mi WSW 3.5 mph - N/A   Clear
11:15 AM 55.4 °F - 33.8 °F 44% 30.40 in 10.0 mi Calm Calm - N/A   Clear
11:35 AM 57.2 °F - 33.8 °F 41% 30.39 in 10.0 mi West 4.6 mph - N/A   Clear
11:55 AM 59.0 °F - 33.8 °F 39% 30.37 in 10.0 mi SSW 3.5 mph - N/A   Clear
12:15 PM 59.0 °F - 32.0 °F 36% 30.36 in 10.0 mi SSW 8.1 mph - N/A   Clear
12:35 PM 59.0 °F - 32.0 °F 36% 30.35 in 10.0 mi WSW 3.5 mph - N/A   Clear
12:55 PM 60.8 °F - 32.0 °F 34% 30.34 in 10.0 mi SW 6.9 mph - N/A   Clear
1:15 PM 60.8 °F - 32.0 °F 34% 30.34 in 10.0 mi SSW 3.5 mph - N/A   Clear
1:35 PM 60.8 °F - 32.0 °F 34% 30.33 in 10.0 mi South 3.5 mph - N/A   Clear
1:55 PM 60.8 °F - 32.0 °F 34% 30.32 in 10.0 mi South 8.1 mph - N/A   Clear
2:15 PM 60.8 °F - 32.0 °F 34% 30.31 in 10.0 mi SSW 3.5 mph - N/A   Clear
2:35 PM 60.8 °F - 32.0 °F 34% 30.31 in 10.0 mi SW 6.9 mph - N/A   Clear
2:55 PM 60.8 °F - 32.0 °F 34% 30.31 in 10.0 mi SSW 3.5 mph - N/A   Clear
3:15 PM 60.8 °F - 32.0 °F 34% 30.31 in 10.0 mi SSW 4.6 mph - N/A   Clear
3:35 PM 60.8 °F - 32.0 °F 34% 30.31 in 10.0 mi SSW 4.6 mph - N/A   Clear
3:55 PM 59.0 °F - 32.0 °F 36% 30.31 in 10.0 mi South 4.6 mph - N/A   Clear
4:15 PM 59.0 °F - 32.0 °F 36% 30.31 in 10.0 mi South 3.5 mph - N/A   Clear
4:35 PM 55.4 °F - 33.8 °F 44% 30.31 in 10.0 mi South 3.5 mph - N/A   Clear
4:55 PM 51.8 °F - 33.8 °F 50% 30.31 in 10.0 mi Calm Calm - N/A   Clear
5:15 PM 50.0 °F - 33.8 °F 54% 30.31 in 10.0 mi Calm Calm - N/A   Clear
5:35 PM 46.4 °F - 33.8 °F 62% 30.31 in 10.0 mi Calm Calm - N/A   Clear
5:55 PM 44.6 °F - 33.8 °F 66% 30.31 in 10.0 mi Calm Calm - N/A   Clear
6:15 PM 42.8 °F - 33.8 °F 70% 30.31 in 10.0 mi Calm Calm - N/A   Clear
6:35 PM 41.0 °F - 33.8 °F 76% 30.32 in 10.0 mi Calm Calm - N/A   Clear
6:55 PM 41.0 °F - 33.8 °F 76% 30.32 in 10.0 mi Calm Calm - N/A   Clear
7:15 PM 41.0 °F - 33.8 °F 76% 30.32 in 10.0 mi Calm Calm - N/A   Clear
7:35 PM 39.2 °F - 33.8 °F 81% 30.33 in 10.0 mi Calm Calm - N/A   Clear
7:55 PM 37.4 °F - 33.8 °F 87% 30.33 in 10.0 mi Calm Calm - N/A   Clear
8:15 PM 37.4 °F - 33.8 °F 87% 30.33 in 10.0 mi Calm Calm - N/A   Clear
8:35 PM 37.4 °F - 33.8 °F 87% 30.33 in 10.0 mi Calm Calm - N/A   Clear
8:55 PM 35.6 °F - 32.0 °F 87% 30.33 in 10.0 mi Calm Calm - N/A   Clear
9:15 PM 35.6 °F - 32.0 °F 87% 30.33 in 10.0 mi Calm Calm - N/A   Clear
9:35 PM 33.8 °F - 33.8 °F 100% 30.33 in 10.0 mi Calm Calm - N/A   Clear
9:55 PM 33.8 °F - 32.0 °F 93% 30.33 in 10.0 mi Calm Calm - N/A   Clear
10:15 PM 33.8 °F - 32.0 °F 93% 30.33 in 10.0 mi Calm Calm - N/A   Clear
10:35 PM 33.8 °F - 33.8 °F 100% 30.34 in 10.0 mi Calm Calm - N/A   Clear
10:55 PM 32.0 °F - 32.0 °F 100% 30.34 in 10.0 mi Calm Calm - N/A   Clear
11:15 PM 32.0 °F - 32.0 °F 100% 30.34 in 10.0 mi Calm Calm - N/A   Clear
11:35 PM 32.0 °F - 32.0 °F 100% 30.34 in 10.0 mi Calm Calm - N/A   Clear
11:55 PM 32.0 °F - 32.0 °F 100% 30.34 in 10.0 mi Calm Calm - N/A   Clear